Sign in

Goboko Update

Goboko is set to continue

The Goboko booking system is to continue under a new operator, a member of one of our longest-subscribed flying clubs

The new and previous operators of the site are working to ensure there will be no interruption to your booking service as the transition takes place. Of course, aircraft booking will continue to be free

Thank you for your continued commitment to Goboko

Info

Aviation weather

METAR KDAB 172353Z 00000KT 10SM FEW044 FEW075 OVC150 28/26 A3004 RMK AO2 SLP171 60000 T02780256 10333 20261 53002

TAF KDAB 172344Z 1800/1824 20005KT P6SM FEW050 SCT150 BKN250 FM181400 20005KT P6SM SCT025 SCT250 FM181700 23008KT P6SM VCTS FEW035 SCT050CB FM182300 24006KT P6SM FEW050 SCT080 BKN150

Aviation weather from ADDS. Re-check weather before flight.

-